Location: Casco Volunteer Fire Department
(44.5576°N, 87.6146°W)
Time: 04:42:23
(UTC+00:00)

BlueWalker 3 - Pass Details

Date: 16 March 2026
Orbit: 449 x 457 km, 53.2° (Epoch: 15 April)

Event Time Altitude Azimuth Distance (km) Brightness Sun altitude
Exits shadow 10:56:16 17° 288° (WNW) 1,216 3.3 -12.3°
Maximum altitude 10:58:41 44° 221° (SW) 640 2.1 -11.9°
Drops below altitude 10° 11:02:06 10° 148° (SSE) 1,588 4.8 -11.3°
Sets 11:04:17 0° 142° (SE) 2,456 5.9 -10.9°
